TimeAEDT,TemperatureF,Dew PointF,Humidity,Sea Level PressureIn,VisibilityMPH,Wind Direction,Wind SpeedMPH,Gust SpeedMPH,PrecipitationIn,Events,Conditions,WindDirDegrees,DateUTC
12:00 AM,66,64,89,29.74,12,Calm,Calm,,,,Haze,,2013-10-12 13:00:00
12:00 AM,66.2,64.4,94,29.74,-9999.0,Calm,Calm,-,N/A,,Clear,0,2013-10-12 13:00:00
12:30 AM,66.2,64.4,94,29.71,-9999.0,SW,4.6,-,N/A,,Clear,220,2013-10-12 13:30:00
1:00 AM,66,62,85,29.73,,West,4.6,,,,,280,2013-10-12 14:00:00
1:00 AM,66.2,62.6,88,29.71,-9999.0,West,4.6,-,N/A,,Clear,280,2013-10-12 14:00:00
1:30 AM,66.2,62.6,88,29.71,-9999.0,WNW,4.6,-,N/A,,Clear,300,2013-10-12 14:30:00
2:00 AM,66,61,80,29.71,,NNW,4.6,,,,,340,2013-10-12 15:00:00
2:30 AM,64.4,60.8,88,29.68,-9999.0,North,5.8,-,N/A,,Clear,350,2013-10-12 15:30:00
3:00 AM,65,60,80,29.66,12,NNE,4.6,,,,Haze,20,2013-10-12 16:00:00
3:00 AM,66.2,60.8,83,29.65,-9999.0,NNE,4.6,-,N/A,,Clear,20,2013-10-12 16:00:00
3:30 AM,66.2,60.8,83,29.62,-9999.0,North,5.8,-,N/A,,Clear,360,2013-10-12 16:30:00
4:00 AM,64,59,80,29.65,,NNW,11.5,,,,,330,2013-10-12 17:00:00
4:00 AM,64.4,59.0,83,29.65,-9999.0,NNW,11.5,-,N/A,,Clear,330,2013-10-12 17:00:00
4:30 AM,64.4,59.0,83,29.65,-9999.0,NNW,10.4,-,N/A,,Clear,340,2013-10-12 17:30:00
5:00 AM,65,58,73,29.65,,North,10.4,,,,,350,2013-10-12 18:00:00
5:00 AM,64.4,59.0,83,29.62,-9999.0,North,10.4,-,N/A,,Clear,350,2013-10-12 18:00:00
5:30 AM,64.4,59.0,83,29.62,-9999.0,NW,5.8,-,N/A,,Clear,320,2013-10-12 18:30:00
6:00 AM,64,57,73,29.63,11,NNW,8.1,,,,Haze,330,2013-10-12 19:00:00
6:00 AM,64.4,57.2,77,29.62,-9999.0,NNW,8.1,-,N/A,,Clear,330,2013-10-12 19:00:00
6:30 AM,64.4,57.2,77,29.62,-9999.0,WNW,10.4,-,N/A,,Clear,300,2013-10-12 19:30:00
7:00 AM,65,56,64,29.62,,NW,11.5,,,,,310,2013-10-12 20:00:00
7:00 AM,66.2,55.4,68,29.59,-9999.0,NW,11.5,-,N/A,,Clear,310,2013-10-12 20:00:00
7:30 AM,68.0,57.2,68,29.59,-9999.0,NNW,12.7,-,N/A,,Clear,330,2013-10-12 20:30:00
8:00 AM,70,56,50,29.61,,NNW,15.0,,,,,330,2013-10-12 21:00:00
8:00 AM,69.8,55.4,60,29.59,-9999.0,NNW,15.0,-,N/A,,Clear,330,2013-10-12 21:00:00
8:30 AM,75.2,53.6,47,29.59,-9999.0,NW,11.5,-,N/A,,Clear,320,2013-10-12 21:30:00
9:00 AM,76,52,32,29.59,16,NW,10.4,,,,Haze,320,2013-10-12 22:00:00
9:00 AM,77.0,51.8,41,29.56,-9999.0,NW,10.4,-,N/A,,Clear,320,2013-10-12 22:00:00
9:30 AM,80.6,51.8,37,29.56,-9999.0,NW,12.7,-,N/A,,Clear,320,2013-10-12 22:30:00
10:00 AM,84,49,20,29.56,,NW,15.0,,,,,320,2013-10-12 23:00:00
10:00 AM,84.2,48.2,29,29.53,-9999.0,NW,15.0,-,N/A,,Clear,320,2013-10-12 23:00:00
10:30 AM,87.8,44.6,22,29.53,-9999.0,NNW,20.7,33.4,N/A,,Clear,330,2013-10-12 23:30:00
11:00 AM,89,45,13,29.52,,NNW,25.3,,,,,330,2013-10-13 00:00:00
11:00 AM,89.6,44.6,21,29.50,-9999.0,NNW,25.3,-,N/A,,Clear,330,2013-10-13 00:00:00
11:15 AM,89.6,42.8,20,29.47,-9999.0,NNW,20.7,32.2,N/A,,Clear,330,2013-10-13 00:15:00
11:30 AM,91.4,41.0,17,29.47,-9999.0,NNW,26.5,41.4,N/A,,Clear,330,2013-10-13 00:30:00
12:00 PM,92,40,9,29.47,16,NNW,25.3,,,,Haze,330,2013-10-13 01:00:00
12:00 PM,91.4,39.2,16,29.44,-9999.0,NNW,25.3,-,N/A,,Clear,330,2013-10-13 01:00:00
12:18 PM,93.2,37.4,14,29.44,-9999.0,NW,35.7,-,N/A,,Clear,320,2013-10-13 01:18:00
12:30 PM,93.2,35.6,13,29.44,-9999.0,NW,31.1,46.0,N/A,,Clear,320,2013-10-13 01:30:00
1:00 PM,94,37,7,29.43,,NW,29.9,,,,,320,2013-10-13 02:00:00
1:00 PM,93.2,37.4,14,29.42,-9999.0,NW,29.9,41.4,N/A,,Clear,320,2013-10-13 02:00:00
1:30 PM,95.0,15.8,6,29.42,-9999.0,WNW,29.9,41.4,N/A,,Clear,300,2013-10-13 02:30:00
2:00 PM,96,30,4,29.43,,West,29.9,,,,,280,2013-10-13 03:00:00
2:00 PM,95.0,30.2,10,29.42,-9999.0,West,29.9,41.4,N/A,,Clear,280,2013-10-13 03:00:00
2:30 PM,95.0,10.4,4,29.42,-9999.0,WNW,31.1,42.6,N/A,,Clear,290,2013-10-13 03:30:00
3:00 PM,94,4,4,29.42,16,West,33.4,,,,Partly Cloudy,280,2013-10-13 04:00:00
3:00 PM,93.2,5.0,4,29.42,-9999.0,West,33.4,47.2,N/A,,Clear,280,2013-10-13 04:00:00
3:30 PM,95.0,10.4,4,29.42,-9999.0,WNW,33.4,44.9,N/A,,Clear,290,2013-10-13 04:30:00
4:00 PM,93.2,3.2,4,29.39,-9999.0,WNW,27.6,-,N/A,,Clear,290,2013-10-13 05:00:00
4:15 PM,93.2,-0.4,4,29.39,-9999.0,West,23.0,34.5,N/A,,Clear,280,2013-10-13 05:15:00
4:30 PM,93.2,5.0,4,29.39,-9999.0,West,23.0,34.5,N/A,,Clear,280,2013-10-13 05:30:00
5:00 PM,92,8,4,29.39,,West,20.7,,,,,280,2013-10-13 06:00:00
5:00 PM,93.2,6.8,4,29.39,-9999.0,West,20.7,-,N/A,,Clear,280,2013-10-13 06:00:00
5:12 PM,93.2,6.8,4,29.39,-9999.0,WNW,24.2,36.8,N/A,,Clear,290,2013-10-13 06:12:00
5:30 PM,91.4,8.6,5,29.39,-9999.0,West,21.9,33.4,N/A,,Clear,280,2013-10-13 06:30:00
6:00 PM,91,18,4,29.39,19,West,20.7,,,,Partly Cloudy,280,2013-10-13 07:00:00
6:00 PM,91.4,17.6,7,29.39,-9999.0,West,20.7,-,N/A,,Clear,270,2013-10-13 07:00:00
6:30 PM,89.6,17.6,7,29.39,-9999.0,West,17.3,-,N/A,,Clear,280,2013-10-13 07:30:00
6:51 PM,89.6,19.4,8,29.39,-9999.0,West,19.6,31.1,N/A,,Clear,280,2013-10-13 07:51:00
7:00 PM,89,17,4,29.41,,West,17.3,,,,,280,2013-10-13 08:00:00
7:00 PM,89.6,15.8,7,29.39,-9999.0,West,17.3,31.1,N/A,,Clear,280,2013-10-13 08:00:00
7:30 PM,87.8,21.2,9,29.42,-9999.0,West,23.0,34.5,N/A,,Clear,280,2013-10-13 08:30:00
8:00 PM,86,25,5,29.44,,West,19.6,,,,,270,2013-10-13 09:00:00
8:00 PM,86.0,24.8,11,29.42,-9999.0,West,19.6,-,N/A,,Clear,270,2013-10-13 09:00:00
8:13 PM,84.2,26.6,12,29.44,-9999.0,West,21.9,33.4,N/A,,Clear,260,2013-10-13 09:13:00
8:30 PM,78.8,33.8,20,29.47,-9999.0,SW,31.1,42.6,N/A,,Clear,230,2013-10-13 09:30:00
8:33 PM,78.8,35.6,21,29.47,-9999.0,South,35.7,47.2,N/A,,Clear,190,2013-10-13 09:33:00
8:37 PM,69.8,59.0,68,29.50,-9999.0,South,39.1,50.6,N/A,,Clear,190,2013-10-13 09:37:00
9:00 PM,67,58,67,29.59,12,South,35.7,,,,Haze,190,2013-10-13 10:00:00
9:00 PM,68.0,59.0,73,29.56,6.2,South,32.2,43.7,N/A,,Mostly Cloudy,190,2013-10-13 10:00:00
9:30 PM,66.2,59.0,78,29.56,6.2,South,33.4,44.9,N/A,,Mostly Cloudy,190,2013-10-13 10:30:00
9:32 PM,66.2,59.0,78,29.56,6.2,South,33.4,44.9,N/A,,Mostly Cloudy,190,2013-10-13 10:32:00
10:00 PM,66,58,69,29.65,,South,28.8,,,,,180,2013-10-13 11:00:00
10:00 PM,66.2,59.0,78,29.62,6.2,South,28.8,41.4,N/A,,Mostly Cloudy,180,2013-10-13 11:00:00
10:30 PM,64.4,59.0,83,29.62,6.2,South,29.9,-,N/A,Rain,Light Rain,180,2013-10-13 11:30:00
11:00 PM,65,58,71,29.66,,South,21.9,,,,,180,2013-10-13 12:00:00
11:00 PM,64.4,57.2,77,29.65,6.2,South,21.9,-,N/A,Rain,Light Rain,180,2013-10-13 12:00:00
11:30 PM,62.6,57.2,82,29.65,6.2,South,17.3,-,N/A,Rain,Light Rain,180,2013-10-13 12:30:00